[[{"header":{"parameterUnit":"m.s-1","parameterCategory":1,"la1":30.2991,"la2":30.254,"lo1":-89.0895,"lo2":-89.0444,"dy":0.0017,"dx":0.0017,"nx":28,"ny":28,"refTime":"2025-07-22T21:00:00:Z","depth":0,"parameterNumber":2,"parameterNumberName":"U-component_of_WINDS"},"data":[0,0,0,0,0,0,0,0,0,0,0,0,0,0,0,0,0,0,0,0,0,0,0,0,0,0,0,0,0,0,0,0,0,0,0,0,0,0,0,0,0,0,0,0,0,0,0,0,0,0,0,0,0,0,0,0,0,0,2.0941,2.0941,0,2.0917,2.0917,2.0916,2.0841,2.084,2.0838,2.0837,2.0812,2.0813,2.0814,0,0,0,0,0,0,0,0,0,0,0,0,0,2.0925,2.0926,2.0941,2.0941,2.0941,2.0917,2.0917,2.0916,2.0842,2.084,2.0838,2.0836,2.0812,2.0813,2.0814,0,0,0,0,0,0,0,0,0,0,0,0,0,2.092,2.0926,2.0942,2.0901,2.0897,2.0917,2.0917,2.0916,2.0842,2.084,2.0837,2.0835,2.0812,2.0813,2.0814,2.0872,0,0,2.0818,2.0819,0,0,0,0,0,0,0,0,2.092,2.092,2.0907,2.0904,2.0899,2.088,2.0902,2.0902,2.0843,2.0863,2.0837,2.0834,2.0837,2.0836,2.0837,2.0871,2.087,2.0818,2.0819,2.082,2.082,0,0,0,0,0,0,0,2.0921,2.0921,2.0932,2.0907,2.0902,2.0884,2.0881,2.0902,2.0864,2.0861,2.0856,2.0854,2.0834,2.0836,2.0836,2.087,2.0818,2.082,2.082,2.0821,2.0952,2.0955,0,0,0,0,0,0,2.0927,2.0922,2.0933,2.0931,2.0904,2.0887,2.0883,2.0889,2.0864,2.0857,2.0856,2.085,2.0835,2.0834,2.0834,2.0902,2.082,2.0821,2.0822,2.0949,2.0953,2.0955,0,0,0,0,0,0,2.0927,2.0928,2.0933,2.0925,2.0924,2.0889,2.0897,2.0889,2.0891,2.086,2.0853,2.0864,2.0833,2.0833,2.0864,2.09,2.0822,2.0823,2.0946,2.095,2.0954,2.1036,0,0,0,0,0,0,2.0927,2.0929,2.095,2.0926,2.0925,2.0963,2.0899,2.0891,2.0893,2.0886,2.0866,2.086,2.0831,2.0862,2.0865,2.09,2.0824,2.0943,2.0948,2.0953,2.103,2.1043,2.1053,0,0,0,0,0,2.0926,2.0974,2.0951,2.0953,2.0951,2.0965,2.0964,2.093,2.0896,2.0918,2.0898,2.0861,2.0895,2.0866,2.0869,2.0905,2.094,2.0947,2.0952,2.1025,2.104,2.1053,0,0,0,0,0,0,2.1003,2.097,2.0945,2.0986,2.0979,2.0952,2.0978,2.0947,2.0949,2.0942,2.0899,2.0895,2.0933,2.0921,2.0889,2.096,2.0912,2.0919,2.0966,2.098,2.0992,2.0994,2.0825,0,0,0,0,0,2.1024,2.1038,2.1009,2.1048,2.1046,2.1013,2.1018,2.0992,2.0983,2.098,2.0962,2.0955,2.0965,2.0972,2.0979,2.1028,2.1024,2.1055,2.1066,2.1076,2.1082,2.1109,2.1123,2.0975,2.0975,2.0975,0,0,2.1069,2.1053,2.1064,2.1063,2.1055,2.1071,2.1011,2.103,2.1042,2.0982,2.1011,2.0998,2.0988,2.1029,2.1046,2.1021,2.1122,2.1084,2.1091,2.1093,2.1117,2.1131,2.1144,2.0979,2.0979,2.0978,0,0,2.1159,2.1148,2.118,2.1173,2.1161,2.1139,2.1147,2.1126,2.1115,2.1143,2.1099,2.1113,2.113,2.1125,2.1124,2.1215,2.1181,2.1218,2.1279,2.1306,2.1317,2.1327,2.1361,2.1373,2.1225,2.1225,2.1225,0,2.1216,2.1239,2.1201,2.1223,2.1225,2.1172,2.1205,2.12,2.1191,2.1194,2.1166,2.1187,2.1176,2.1216,2.1238,2.1239,2.1248,2.122,2.1319,2.1328,2.1337,2.1369,2.1381,2.123,2.1229,2.1229,2.1228,0,2.131,2.1327,2.1354,2.1348,2.1352,2.138,2.1347,2.1356,2.133,2.1312,2.1342,2.1327,2.1331,2.1338,2.1313,2.1375,2.136,2.1326,2.1276,2.1357,2.1386,2.1397,2.1237,2.1235,2.1234,2.1232,0,0,2.1447,2.142,2.1431,2.1428,2.1412,2.1424,2.145,2.1454,2.1463,2.1459,2.1481,2.1497,2.1466,2.1466,2.144,2.1463,2.1538,2.1426,2.1425,2.1448,2.1607,2.1633,2.1648,2.1515,2.1517,2.1519,2.1608,0,2.1533,2.1575,2.1543,2.1592,2.1607,2.1558,2.1581,2.1574,2.1558,2.1569,2.1551,2.1564,2.1521,2.1521,2.1542,2.1524,2.1569,2.1517,2.1535,2.1536,2.154,2.1662,2.169,2.1775,2.1619,2.1621,2.1622,0,2.1639,2.164,2.1691,2.1673,2.1678,2.17,2.1701,2.1713,2.1704,2.1691,2.1692,2.166,2.1685,2.1636,2.1671,2.1637,2.1643,2.1635,2.1638,2.1638,2.1585,2.1667,2.1801,2.1814,2.1639,2.1638,2.1637,0,2.1735,2.175,2.1782,2.1781,2.1761,2.1777,2.1769,2.1759,2.1764,2.1766,2.1769,2.1773,2.1776,2.1781,2.1752,2.1719,2.1791,2.174,2.1781,2.1782,2.1799,2.1798,2.1936,2.1802,2.1802,2.1801,2.1801,0,2.1835,2.1868,2.1825,2.1845,2.1881,2.1844,2.1881,2.1868,2.186,2.1877,2.1835,2.1852,2.1812,2.1826,2.1803,2.1836,2.1837,2.1828,2.1822,2.1832,2.1834,2.1836,2.1829,2.1805,2.1804,2.1803,2.1803,0,2.1948,2.192,2.1953,2.1932,2.1927,2.1955,2.1937,2.1955,2.1937,2.1959,2.1963,2.1934,2.1947,2.1919,2.1928,2.1913,2.1961,2.1944,2.1964,2.1959,2.2003,2.2,2.2147,2.2165,2.2019,2.202,2.2022,0,2.2014,2.2038,2.202,2.2029,2.2024,2.2038,2.2043,2.2008,2.2015,2.2009,2.2029,2.2039,2.2045,2.207,2.205,2.2058,2.2042,2.2094,2.2043,2.2054,2.2044,2.2044,2.2047,2.2104,2.2106,2.2108,2.2109,0,2.2134,2.212,2.2128,2.2134,2.2141,2.2143,2.2143,2.2152,2.2115,2.2126,2.2139,2.2145,2.2155,2.2167,2.217,2.2163,2.2131,2.2125,2.2135,2.2146,2.2157,2.2153,2.1993,2.2122,2.212,2.2119,2.2119,2.2118,2.2226,2.2246,2.2237,2.2249,2.2245,2.2246,2.2262,2.2246,2.2257,2.2263,2.2242,2.2261,2.2254,2.2255,2.2251,2.2266,2.2243,2.2258,2.2262,2.2266,2.2274,2.2154,2.2267,2.2266,2.2266,2.2266,2.2265,0,2.2345,2.2337,2.2348,2.2349,2.2359,2.2328,2.2325,2.2336,2.2354,2.2349,2.2357,2.2374,2.2385,2.2367,2.2375,2.2391,2.2377,2.2395,2.2393,2.2393,2.2293,2.2284,2.2406,2.2406,2.2406,2.2406,2.2406,2.2406,2.2408,2.2441,2.2426,2.2457,2.2449,2.2467,2.2469,2.247,2.2467,2.2488,2.2497,2.2485,2.2475,2.2483,2.2493,2.2487,2.2492,2.2516,2.2506,2.2413,2.2399,2.2386,2.2377,2.2517,2.2518,2.2604,2.2604,2.2605]},{"header":{"parameterUnit":"m.s-1","parameterCategory":1,"la1":30.2991,"la2":30.254,"lo1":-89.0895,"lo2":-89.0444,"dy":0.0017,"dx":0.0017,"nx":28,"ny":28,"refTime":"2025-07-22T21:00:00:Z","depth":0,"parameterNumber":3,"parameterNumberName":"V-component_of_WINDS"},"data":[0,0,0,0,0,0,0,0,0,0,0,0,0,0,0,0,0,0,0,0,0,0,0,0,0,0,0,0,0,0,0,0,0,0,0,0,0,0,0,0,0,0,0,0,0,0,0,0,0,0,0,0,0,0,0,0,0,0,-3.2826,-3.2828,0,-3.2938,-3.2939,-3.294,-3.2931,-3.2929,-3.2928,-3.2926,-3.3039,-3.3043,-3.3048,0,0,0,0,0,0,0,0,0,0,0,0,0,-3.2606,-3.261,-3.2826,-3.2828,-3.2829,-3.2937,-3.2939,-3.294,-3.2931,-3.2929,-3.2927,-3.2925,-3.3038,-3.3043,-3.3048,0,0,0,0,0,0,0,0,0,0,0,0,0,-3.2708,-3.2611,-3.2826,-3.2838,-3.284,-3.2937,-3.2939,-3.2941,-3.2932,-3.2929,-3.2927,-3.2924,-3.3036,-3.3042,-3.3049,-3.3142,0,0,-3.307,-3.3073,0,0,0,0,0,0,0,0,-3.2702,-3.2716,-3.2835,-3.2837,-3.284,-3.2918,-3.2903,-3.3008,-3.2932,-3.2897,-3.2926,-3.2923,-3.3001,-3.301,-3.3037,-3.3147,-3.3152,-3.3071,-3.3075,-3.3078,-3.308,0,0,0,0,0,0,0,-3.2695,-3.2711,-3.287,-3.2836,-3.2839,-3.2837,-3.2849,-3.2923,-3.2961,-3.29,-3.2899,-3.2913,-3.3002,-3.303,-3.3039,-3.3154,-3.3071,-3.3077,-3.3081,-3.3084,-3.3348,-3.335,0,0,0,0,0,0,-3.2685,-3.2705,-3.2867,-3.2874,-3.2763,-3.2843,-3.2856,-3.2895,-3.2961,-3.2968,-3.2915,-3.2912,-3.302,-3.3031,-3.3043,-3.3157,-3.3078,-3.3084,-3.3088,-3.3345,-3.3348,-3.3351,0,0,0,0,0,0,-3.2681,-3.27,-3.2862,-3.279,-3.281,-3.285,-3.2894,-3.2899,-3.2927,-3.2972,-3.2979,-3.2937,-3.3018,-3.3034,-3.3118,-3.3161,-3.3087,-3.3094,-3.3341,-3.3346,-3.335,-3.3385,0,0,0,0,0,0,-3.2674,-3.2698,-3.2734,-3.279,-3.2814,-3.2935,-3.2896,-3.2903,-3.2939,-3.2937,-3.2994,-3.3002,-3.3017,-3.3108,-3.3125,-3.3169,-3.3099,-3.3338,-3.3343,-3.3348,-3.338,-3.339,-3.3399,0,0,0,0,0,-3.2667,-3.2739,-3.2736,-3.2755,-3.2859,-3.2938,-3.2951,-3.2968,-3.2943,-3.2979,-3.3008,-3.3,-3.3153,-3.3116,-3.3135,-3.3182,-3.3335,-3.3342,-3.3348,-3.3376,-3.3388,-3.3398,0,0,0,0,0,0,-3.2686,-3.2746,-3.2744,-3.2836,-3.2882,-3.2936,-3.2982,-3.298,-3.3033,-3.3029,-3.3047,-3.306,-3.3145,-3.3172,-3.313,-3.3276,-3.3241,-3.3251,-3.3256,-3.3268,-3.3276,-3.3268,-3.3105,0,0,0,0,0,-3.2701,-3.2759,-3.2809,-3.2886,-3.2909,-3.2942,-3.2977,-3.2986,-3.3034,-3.3053,-3.3088,-3.3135,-3.3194,-3.3232,-3.3289,-3.3384,-3.3397,-3.3426,-3.3435,-3.3442,-3.3451,-3.3505,-3.3519,-3.3373,-3.3373,-3.3373,0,0,-3.2732,-3.2773,-3.2808,-3.2891,-3.2928,-3.2988,-3.2958,-3.3023,-3.3069,-3.3063,-3.3145,-3.3172,-3.3226,-3.3317,-3.3358,-3.3342,-3.3495,-3.3451,-3.3456,-3.3461,-3.3513,-3.3527,-3.3539,-3.3377,-3.3376,-3.3376,0,0,-3.2821,-3.2857,-3.2926,-3.2963,-3.3019,-3.3041,-3.3057,-3.3112,-3.313,-3.3213,-3.3211,-3.3265,-3.3365,-3.3404,-3.3437,-3.3542,-3.3537,-3.356,-3.3607,-3.366,-3.3671,-3.3682,-3.372,-3.3733,-3.3568,-3.3569,-3.3569,0,-3.2853,-3.2944,-3.2961,-3.3028,-3.3064,-3.3063,-3.3133,-3.3168,-3.324,-3.3265,-3.3246,-3.3373,-3.3409,-3.3509,-3.3535,-3.3561,-3.3581,-3.3553,-3.3668,-3.3679,-3.3689,-3.3726,-3.374,-3.3571,-3.3571,-3.3571,-3.357,0,-3.2981,-3.3045,-3.3094,-3.3164,-3.3206,-3.3274,-3.3301,-3.3342,-3.3348,-3.3371,-3.3456,-3.3499,-3.3565,-3.359,-3.3596,-3.3692,-3.368,-3.3664,-3.3629,-3.3705,-3.374,-3.3754,-3.3575,-3.3574,-3.3573,-3.3572,0,0,-3.3084,-3.3164,-3.3182,-3.3214,-3.3276,-3.3326,-3.3394,-3.3459,-3.3494,-3.3543,-3.3602,-3.3688,-3.3674,-3.3711,-3.3722,-3.3768,-3.3849,-3.3746,-3.3748,-3.3765,-3.3959,-3.3971,-3.3987,-3.3846,-3.3849,-3.3851,-3.3955,0,-3.318,-3.3301,-3.3319,-3.3425,-3.3485,-3.3485,-3.3544,-3.3589,-3.3613,-3.3667,-3.3694,-3.3755,-3.3732,-3.3755,-3.38,-3.383,-3.3889,-3.3822,-3.3901,-3.3903,-3.3888,-3.4005,-3.4018,-3.4113,-3.3969,-3.3971,-3.3973,0,-3.3307,-3.3361,-3.3474,-3.353,-3.3555,-3.3609,-3.367,-3.3722,-3.3773,-3.3787,-3.383,-3.3835,-3.3906,-3.3868,-3.3967,-3.3921,-3.3954,-3.3974,-3.3978,-3.3987,-3.3943,-3.4017,-3.4144,-3.4159,-3.3994,-3.3992,-3.3991,0,-3.3372,-3.3473,-3.3554,-3.3582,-3.3648,-3.3686,-3.3715,-3.3764,-3.3802,-3.3856,-3.3882,-3.3943,-3.3977,-3.4024,-3.4046,-3.4016,-3.4144,-3.4107,-3.4159,-3.4158,-3.4186,-3.4184,-3.432,-3.4206,-3.4206,-3.4205,-3.4205,0,-3.3478,-3.3547,-3.3585,-3.3634,-3.3712,-3.3733,-3.3809,-3.3837,-3.3881,-3.3937,-3.394,-3.3992,-3.4017,-3.4074,-3.4091,-3.4171,-3.4186,-3.42,-3.4204,-3.42,-3.4198,-3.4222,-3.4217,-3.4209,-3.4208,-3.4208,-3.4207,0,-3.3563,-3.3591,-3.368,-3.3736,-3.3752,-3.3807,-3.3855,-3.3904,-3.3928,-3.3998,-3.4016,-3.4054,-3.412,-3.4147,-3.4228,-3.424,-3.4332,-3.433,-3.4315,-3.4316,-3.4366,-3.4362,-3.4524,-3.4546,-3.4416,-3.4418,-3.4419,0,-3.3629,-3.3682,-3.3745,-3.3782,-3.3813,-3.3874,-3.3914,-3.3936,-3.3977,-3.404,-3.4081,-3.4148,-3.4202,-3.4308,-3.4343,-3.4406,-3.4406,-3.4459,-3.4415,-3.441,-3.4408,-3.4405,-3.4411,-3.4467,-3.4468,-3.4469,-3.447,0,-3.3743,-3.3754,-3.3811,-3.3874,-3.3921,-3.3971,-3.402,-3.4051,-3.4081,-3.4127,-3.4195,-3.4237,-3.4321,-3.4387,-3.4452,-3.4482,-3.4482,-3.4483,-3.4499,-3.4496,-3.4485,-3.4492,-3.4337,-3.4479,-3.4478,-3.4478,-3.4477,-3.4477,-3.3821,-3.3869,-3.3921,-3.3985,-3.4024,-3.407,-3.4119,-3.415,-3.4207,-3.4277,-3.4287,-3.436,-3.4411,-3.4498,-3.4531,-3.4589,-3.4576,-3.4598,-3.4603,-3.4609,-3.4613,-3.4475,-3.4601,-3.4601,-3.4601,-3.46,-3.46,0,-3.3936,-3.3969,-3.4028,-3.4097,-3.4147,-3.4142,-3.4197,-3.4239,-3.4304,-3.4352,-3.4406,-3.4485,-3.455,-3.459,-3.4655,-3.4694,-3.4696,-3.4711,-3.4708,-3.4716,-3.4621,-3.4601,-3.4709,-3.4709,-3.4709,-3.4708,-3.4708,-3.4708,-3.4001,-3.4083,-3.4101,-3.4202,-3.4235,-3.4308,-3.4339,-3.4382,-3.442,-3.4509,-3.4563,-3.4589,-3.4634,-3.4703,-3.4763,-3.4773,-3.4797,-3.4813,-3.4823,-3.4733,-3.4722,-3.4711,-3.4693,-3.4818,-3.4818,-3.4913,-3.4914,-3.4915]}]]